| time (UTC) | temp F | wind direction | speed knots | gust knots | rain 1hr in | rain 24hr in | rain mn in | humidity % | barometer mb |
| 20260503203035 | 57 | 0 | 0.9 | 4.3 | 0.00 | 0.15 | 0.15 | 72 | 1012.9 |
| 20260503202515 | 57 | 194 | 0.9 | 4.3 | 0.00 | 0.15 | 0.15 | 73 | 1012.9 |
| 20260503202015 | 57 | 0 | 0.9 | 4.3 | 0.00 | 0.15 | 0.15 | 73 | 1012.9 |
| 20260503201530 | 57 | 197 | 0.9 | 4.3 | 0.00 | 0.15 | 0.15 | 74 | 1012.8 |
| 20260503201014 | 57 | 175 | 0.9 | 4.3 | 0.00 | 0.15 | 0.15 | 74 | 1012.8 |
| 20260503200515 | 57 | 195 | 0.9 | 4.3 | 0.00 | 0.15 | 0.15 | 75 | 1012.8 |
| 20260503200032 | 57 | 203 | 0.9 | 4.3 | 0.00 | 0.15 | 0.15 | 76 | 1012.8 |
| 20260503195513 | 57 | 194 | 0.9 | 4.3 | 0.00 | 0.15 | 0.15 | 76 | 1012.8 |
| 20260503195017 | 57 | 199 | 0.9 | 3.5 | 0.00 | 0.15 | 0.15 | 75 | 1012.6 |
| 20260503194534 | 57 | 0 | 0.0 | 4.3 | 0.00 | 0.15 | 0.15 | 75 | 1012.4 |
| 20260503194018 | 57 | 0 | 0.0 | 4.3 | 0.00 | 0.15 | 0.15 | 75 | 1012.4 |
| 20260503193512 | 57 | 221 | 0.9 | 4.3 | 0.00 | 0.15 | 0.15 | 75 | 1012.3 |
| 20260503193043 | 58 | 210 | 0.0 | 3.5 | 0.00 | 0.15 | 0.15 | 74 | 1012.3 |
| 20260503192514 | 58 | 0 | 0.0 | 5.2 | 0.00 | 0.15 | 0.15 | 74 | 1012.3 |
| 20260503192015 | 58 | 0 | 0.0 | 5.2 | 0.00 | 0.15 | 0.15 | 74 | 1012.3 |
| 20260503191600 | 58 | 0 | 0.9 | 5.2 | 0.00 | 0.15 | 0.15 | 74 | 1012.2 |
| 20260503191015 | 59 | 202 | 0.9 | 3.5 | 0.00 | 0.15 | 0.15 | 74 | 1012.2 |
| 20260503190514 | 59 | 0 | 0.0 | 4.3 | 0.00 | 0.15 | 0.15 | 73 | 1012.2 |
| 20260503190034 | 59 | 0 | 0.9 | 7.0 | 0.00 | 0.15 | 0.15 | 73 | 1012.0 |
| 20260503185519 | 60 | 0 | 0.9 | 7.0 | 0.00 | 0.15 | 0.15 | 71 | 1011.9 |
| 20260503185014 | 60 | 238 | 3.5 | 7.0 | 0.00 | 0.15 | 0.15 | 71 | 1011.9 |
| 20260503184528 | 60 | 241 | 0.9 | 6.1 | 0.00 | 0.15 | 0.15 | 71 | 1011.9 |
| 20260503184014 | 59 | 250 | 1.7 | 6.1 | 0.00 | 0.15 | 0.15 | 71 | 1011.8 |
| 20260503183515 | 60 | 0 | 0.9 | 6.1 | 0.00 | 0.15 | 0.15 | 71 | 1011.9 |
| 20260503183030 | 60 | 248 | 0.9 | 7.8 | 0.00 | 0.15 | 0.15 | 70 | 1011.9 |
| 20260503182512 | 60 | 240 | 1.7 | 8.7 | 0.00 | 0.15 | 0.15 | 69 | 1012.0 |
| 20260503182013 | 60 | 250 | 1.7 | 8.7 | 0.00 | 0.15 | 0.15 | 68 | 1011.9 |
| 20260503181544 | 60 | 242 | 4.3 | 8.7 | 0.00 | 0.15 | 0.15 | 67 | 1011.8 |
| 20260503181014 | 60 | 260 | 4.3 | 7.8 | 0.00 | 0.15 | 0.15 | 67 | 1011.9 |
| 20260503180514 | 61 | 250 | 2.6 | 7.8 | 0.00 | 0.15 | 0.15 | 68 | 1011.8 |
| 20260503180033 | 61 | 237 | 0.9 | 7.8 | 0.00 | 0.15 | 0.15 | 67 | 1011.9 |
| 20260503175512 | 61 | 215 | 3.5 | 10.4 | 0.00 | 0.15 | 0.15 | 64 | 1011.9 |
| 20260503175016 | 62 | 261 | 3.5 | 10.4 | 0.00 | 0.15 | 0.15 | 64 | 1011.9 |
| 20260503174539 | 62 | 203 | 4.3 | 10.4 | 0.00 | 0.15 | 0.15 | 64 | 1011.8 |
| 20260503174017 | 63 | 240 | 5.2 | 13.9 | 0.00 | 0.15 | 0.15 | 63 | 1011.8 |
| 20260503173514 | 63 | 314 | 7.0 | 13.9 | 0.00 | 0.15 | 0.15 | 62 | 1011.8 |
| 20260503173030 | 63 | 228 | 6.1 | 11.3 | 0.00 | 0.15 | 0.15 | 61 | 1011.8 |
| 20260503172515 | 63 | 198 | 1.7 | 10.4 | 0.00 | 0.15 | 0.15 | 62 | 1011.8 |
| 20260503172016 | 63 | 280 | 6.1 | 12.2 | 0.00 | 0.15 | 0.15 | 62 | 1011.8 |
| 20260503171530 | 63 | 292 | 3.5 | 12.2 | 0.00 | 0.15 | 0.15 | 63 | 1011.9 |
| 20260503171014 | 63 | 248 | 3.5 | 11.3 | 0.00 | 0.15 | 0.15 | 65 | 1011.9 |
| 20260503170515 | 63 | 252 | 4.3 | 11.3 | 0.00 | 0.15 | 0.15 | 63 | 1012.0 |
| 20260503150511 | 66 | 237 | 2.6 | 14.8 | 0.00 | 0.28 | 0.15 | 62 | 1012.0 |
| 20260503131016 | 66 | 284 | 4.3 | 12.2 | 0.00 | 0.35 | 0.15 | 69 | 1012.4 |
| 20260503130514 | 66 | 103 | 5.2 | 12.2 | 0.00 | 0.35 | 0.15 | 67 | 1012.6 |
| 20260503110523 | 64 | 250 | 2.6 | 7.0 | 0.00 | 0.36 | 0.12 | 75 | 1013.9 |
| 20260503081540 | 55 | 0 | 0.0 | 0.9 | 0.00 | 0.55 | 0.12 | 92 | 1014.8 |
| 20260503081016 | 56 | 0 | 0.0 | 2.6 | 0.00 | 0.55 | 0.12 | 93 | 1014.9 |
| 20260503080515 | 55 | 0 | 0.0 | 2.6 | 0.00 | 0.55 | 0.12 | 93 | 1015.0 |
| 20260503072516 | 54 | 0 | 0.0 | 0.9 | 0.08 | 0.59 | 0.12 | 93 | 1014.5 |
| 20260503072016 | 53 | 0 | 0.0 | 0.9 | 0.12 | 0.59 | 0.12 | 93 | 1014.3 |
| 20260503071531 | 53 | 0 | 0.0 | 0.9 | 0.11 | 0.59 | 0.11 | 93 | 1014.5 |
| 20260503071015 | 53 | 0 | 0.0 | 0.9 | 0.11 | 0.59 | 0.11 | 93 | 1014.6 |
| 20260503070518 | 53 | 0 | 0.0 | 0.9 | 0.11 | 0.59 | 0.11 | 93 | 1014.6 |
| 20260503055016 | 53 | 0 | 0.0 | 0.9 | 0.00 | 0.55 | 0.00 | 93 | 1014.0 |
| 20260503054544 | 52 | 0 | 0.0 | 0.0 | 0.00 | 0.55 | 0.00 | 93 | 1014.0 |
| 20260503054017 | 52 | 0 | 0.0 | 0.9 | 0.00 | 0.55 | 0.00 | 93 | 1014.0 |
| 20260503053515 | 52 | 0 | 0.0 | 0.9 | 0.00 | 0.55 | 0.00 | 93 | 1014.0 |
| 20260503053032 | 52 | 0 | 0.0 | 0.9 | 0.00 | 0.55 | 0.00 | 93 | 1014.1 |
| 20260503052516 | 52 | 0 | 0.0 | 0.9 | 0.00 | 0.55 | 0.00 | 93 | 1014.2 |
| 20260503052016 | 52 | 0 | 0.0 | 2.6 | 0.00 | 0.55 | 0.00 | 93 | 1014.2 |
| 20260503051531 | 52 | 0 | 0.0 | 2.6 | 0.00 | 0.55 | 0.00 | 92 | 1014.1 |
| 20260503051016 | 52 | 0 | 0.9 | 2.6 | 0.00 | 0.55 | 0.00 | 92 | 1014.2 |
| 20260503050516 | 52 | 136 | 0.0 | 1.7 | 0.00 | 0.55 | 0.00 | 92 | 1014.2 |
| 20260503050035 | 52 | 0 | 0.0 | 0.0 | 0.00 | 0.55 | 0.00 | 92 | 1014.2 |
| 20260503045516 | 52 | 0 | 0.0 | 0.0 | 0.00 | 0.55 | 0.00 | 92 | 1014.3 |
| 20260503045017 | 52 | 0 | 0.0 | 0.0 | 0.00 | 0.55 | 0.00 | 92 | 1014.2 |
| 20260503044538 | 52 | 0 | 0.0 | 1.7 | 0.00 | 0.55 | 0.00 | 92 | 1014.2 |
| 20260503044013 | 52 | 0 | 0.0 | 1.7 | 0.00 | 0.55 | 0.00 | 92 | 1014.3 |
| 20260503043516 | 52 | 0 | 0.0 | 1.7 | 0.00 | 0.55 | 0.00 | 92 | 1014.3 |
| 20260503043042 | 52 | 0 | 0.0 | 2.6 | 0.00 | 0.55 | 0.00 | 92 | 1014.3 |
| 20260503042514 | 52 | 0 | 0.0 | 3.5 | 0.00 | 0.55 | 0.00 | 92 | 1014.2 |
| 20260503042016 | 52 | 0 | 0.0 | 6.1 | 0.00 | 0.55 | 0.00 | 92 | 1014.2 |
| 20260503041530 | 52 | 136 | 0.9 | 6.1 | 0.00 | 0.55 | 0.00 | 92 | 1014.3 |
| 20260503041017 | 52 | 136 | 2.6 | 6.1 | 0.00 | 0.55 | 0.00 | 92 | 1014.3 |
| 20260503040516 | 52 | 141 | 0.9 | 4.3 | 0.00 | 0.55 | 0.00 | 92 | 1014.3 |
| 20260503040032 | 53 | 144 | 0.9 | 3.5 | 0.00 | 0.55 | 0.00 | 92 | 1014.4 |
| 20260503035516 | 53 | 146 | 1.7 | 3.5 | 0.00 | 0.55 | 0.00 | 92 | 1014.3 |
| 20260503035015 | 53 | 144 | 1.7 | 3.5 | 0.00 | 0.55 | 0.00 | 92 | 1014.3 |
| 20260503034531 | 53 | 142 | 0.9 | 3.5 | 0.00 | 0.55 | 0.00 | 92 | 1014.4 |
| 20260503034016 | 53 | 145 | 0.0 | 2.6 | 0.00 | 0.55 | 0.00 | 92 | 1014.4 |
| 20260503033516 | 53 | 0 | 0.0 | 2.6 | 0.00 | 0.55 | 0.00 | 92 | 1014.6 |
| 20260503033031 | 53 | 145 | 0.0 | 2.6 | 0.00 | 0.55 | 0.00 | 92 | 1014.7 |
| 20260503032515 | 53 | 145 | 0.9 | 2.6 | 0.00 | 0.55 | 0.00 | 92 | 1014.7 |
| 20260503032014 | 53 | 0 | 0.9 | 2.6 | 0.00 | 0.55 | 0.00 | 92 | 1014.8 |
| 20260503031531 | 53 | 146 | 0.0 | 2.6 | 0.00 | 0.55 | 0.00 | 92 | 1014.9 |
| 20260503031016 | 53 | 146 | 0.0 | 2.6 | 0.00 | 0.55 | 0.00 | 92 | 1014.9 |
| 20260503030513 | 53 | 0 | 0.0 | 2.6 | 0.00 | 0.55 | 0.00 | 92 | 1015.0 |
| 20260503030036 | 53 | 146 | 0.0 | 2.6 | 0.00 | 0.55 | 0.00 | 92 | 1014.9 |
| 20260503025515 | 53 | 0 | 0.0 | 2.6 | 0.00 | 0.55 | 0.00 | 92 | 1014.8 |
| 20260503025013 | 53 | 0 | 0.0 | 2.6 | 0.00 | 0.55 | 0.00 | 92 | 1014.9 |
| 20260503024533 | 53 | 0 | 0.0 | 1.7 | 0.00 | 0.55 | 0.00 | 92 | 1015.0 |
| 20260503024016 | 53 | 146 | 0.0 | 0.9 | 0.00 | 0.55 | 0.00 | 92 | 1015.0 |
| 20260503023517 | 53 | 0 | 0.0 | 0.9 | 0.00 | 0.55 | 0.00 | 92 | 1015.0 |
| 20260503023035 | 53 | 0 | 0.0 | 3.5 | 0.00 | 0.55 | 0.00 | 92 | 1015.1 |
| 20260503022515 | 53 | 0 | 0.9 | 3.5 | 0.00 | 0.55 | 0.00 | 92 | 1015.0 |
| 20260503022013 | 53 | 0 | 0.9 | 2.6 | 0.00 | 0.55 | 0.00 | 92 | 1015.1 |
| 20260503021529 | 53 | 0 | 0.0 | 2.6 | 0.00 | 0.55 | 0.00 | 92 | 1015.1 |
| 20260503021014 | 53 | 0 | 0.0 | 2.6 | 0.00 | 0.55 | 0.00 | 92 | 1015.0 |
| 20260503020516 | 53 | 0 | 0.0 | 2.6 | 0.00 | 0.55 | 0.00 | 92 | 1015.1 |
| 20260503020032 | 53 | 151 | 0.0 | 2.6 | 0.00 | 0.55 | 0.00 | 92 | 1015.0 |
| 20260503015521 | 53 | 0 | 0.0 | 0.0 | 0.00 | 0.55 | 0.00 | 92 | 1015.0 |
| 20260503015015 | 54 | 0 | 0.0 | 0.0 | 0.00 | 0.55 | 0.00 | 92 | 1015.0 |
| 20260503014530 | 54 | 0 | 0.0 | 0.0 | 0.00 | 0.55 | 0.00 | 92 | 1015.0 |
| 20260503014017 | 54 | 0 | 0.0 | 0.0 | 0.00 | 0.55 | 0.00 | 92 | 1015.1 |
| 20260503013516 | 54 | 0 | 0.0 | 0.0 | 0.00 | 0.55 | 0.00 | 92 | 1015.1 |
| 20260503013039 | 54 | 0 | 0.0 | 0.0 | 0.00 | 0.55 | 0.00 | 92 | 1015.1 |
| 20260503012515 | 54 | 0 | 0.0 | 0.0 | 0.00 | 0.55 | 0.00 | 92 | 1015.2 |
| 20260503012016 | 54 | 0 | 0.0 | 0.0 | 0.00 | 0.55 | 0.00 | 92 | 1015.1 |
| 20260503011531 | 54 | 0 | 0.0 | 0.0 | 0.00 | 0.55 | 0.00 | 92 | 1015.2 |
| 20260503011015 | 54 | 0 | 0.0 | 0.0 | 0.00 | 0.55 | 0.00 | 92 | 1015.4 |
| 20260503010516 | 54 | 0 | 0.0 | 0.0 | 0.00 | 0.55 | 0.00 | 92 | 1015.4 |
| 20260503010031 | 54 | 0 | 0.0 | 2.6 | 0.00 | 0.55 | 0.00 | 92 | 1015.5 |
| 20260503005513 | 54 | 0 | 0.0 | 2.6 | 0.00 | 0.55 | 0.00 | 92 | 1015.6 |
| 20260503005015 | 54 | 0 | 0.0 | 0.0 | 0.00 | 0.55 | 0.00 | 92 | 1015.5 |
| 20260503004535 | 54 | 0 | 0.0 | 0.9 | 0.00 | 0.55 | 0.00 | 93 | 1015.5 |
| 20260503004016 | 54 | 0 | 0.0 | 0.9 | 0.00 | 0.55 | 0.00 | 93 | 1015.6 |
| 20260503003516 | 54 | 0 | 0.0 | 0.0 | 0.00 | 0.55 | 0.00 | 93 | 1015.6 |
| 20260503003042 | 54 | 0 | 0.0 | 0.0 | 0.00 | 0.55 | 0.00 | 93 | 1015.6 |
| 20260503002516 | 54 | 0 | 0.0 | 0.0 | 0.00 | 0.55 | 0.00 | 93 | 1015.7 |
| 20260503002016 | 54 | 0 | 0.0 | 0.0 | 0.00 | 0.55 | 0.00 | 93 | 1015.7 |
| 20260503001540 | 54 | 0 | 0.0 | 0.0 | 0.00 | 0.55 | 0.00 | 93 | 1015.7 |
| 20260503001016 | 54 | 0 | 0.0 | 0.0 | 0.00 | 0.55 | 0.00 | 93 | 1015.7 |
| 20260503000518 | 54 | 0 | 0.0 | 0.0 | 0.00 | 0.55 | 0.00 | 93 | 1015.7 |
| 20260503000034 | 54 | 0 | 0.0 | 0.0 | 0.00 | 0.55 | 0.00 | 93 | 1015.7 |
| 20260502235515 | 54 | 0 | 0.0 | 0.9 | 0.00 | 0.55 | 0.00 | 93 | 1015.8 |
| 20260502235015 | 54 | 0 | 0.0 | 0.9 | 0.00 | 0.55 | 0.00 | 93 | 1015.9 |
| 20260502234544 | 54 | 0 | 0.0 | 0.9 | 0.00 | 0.55 | 0.00 | 93 | 1015.9 |
| 20260502234016 | 54 | 0 | 0.0 | 2.6 | 0.00 | 0.55 | 0.00 | 93 | 1016.0 |
| 20260502233513 | 54 | 0 | 0.0 | 2.6 | 0.00 | 0.55 | 0.00 | 93 | 1016.0 |
| 20260502233039 | 55 | 0 | 0.0 | 2.6 | 0.00 | 0.55 | 0.00 | 93 | 1016.2 |
| 20260502232517 | 55 | 0 | 0.0 | 2.6 | 0.00 | 0.55 | 0.00 | 93 | 1016.1 |
| 20260502232014 | 55 | 0 | 0.0 | 2.6 | 0.00 | 0.55 | 0.00 | 93 | 1016.0 |
| 20260502231529 | 55 | 151 | 0.9 | 2.6 | 0.00 | 0.55 | 0.00 | 93 | 1016.1 |
| 20260502231015 | 55 | 151 | 0.9 | 4.3 | 0.00 | 0.55 | 0.00 | 93 | 1016.1 |
| 20260502230516 | 55 | 0 | 0.0 | 5.2 | 0.00 | 0.55 | 0.00 | 93 | 1016.1 |
| 20260502230034 | 55 | 152 | 1.7 | 5.2 | 0.00 | 0.55 | 0.00 | 93 | 1016.2 |
| 20260502225511 | 55 | 190 | 0.0 | 0.0 | 0.00 | 0.55 | 0.00 | 93 | 1016.2 |
| 20260502225014 | 55 | 0 | 0.0 | 0.0 | 0.00 | 0.55 | 0.00 | 93 | 1016.1 |
| 20260502224540 | 55 | 0 | 0.0 | 0.0 | 0.00 | 0.55 | 0.00 | 93 | 1016.1 |
| 20260502224014 | 55 | 0 | 0.0 | 0.0 | 0.00 | 0.55 | 0.00 | 93 | 1016.1 |
| 20260502223513 | 55 | 0 | 0.0 | 0.0 | 0.00 | 0.55 | 0.00 | 93 | 1016.2 |
| 20260502223039 | 55 | 0 | 0.0 | 0.0 | 0.00 | 0.55 | 0.00 | 93 | 1016.4 |
| 20260502222514 | 55 | 0 | 0.0 | 0.0 | 0.00 | 0.55 | 0.00 | 93 | 1016.2 |
| 20260502222015 | 55 | 0 | 0.0 | 0.0 | 0.00 | 0.55 | 0.00 | 93 | 1016.2 |
| 20260502221529 | 55 | 0 | 0.0 | 0.0 | 0.00 | 0.55 | 0.00 | 93 | 1016.3 |
| 20260502221012 | 55 | 0 | 0.0 | 0.0 | 0.00 | 0.55 | 0.00 | 92 | 1016.4 |
| 20260502220512 | 55 | 0 | 0.0 | 0.0 | 0.00 | 0.55 | 0.00 | 92 | 1016.4 |
| 20260502220030 | 54 | 0 | 0.0 | 0.0 | 0.00 | 0.55 | 0.00 | 92 | 1016.4 |
| 20260502215514 | 54 | 0 | 0.0 | 0.0 | 0.00 | 0.55 | 0.55 | 92 | 1016.5 |
| 20260502215016 | 54 | 0 | 0.0 | 0.0 | 0.00 | 0.55 | 0.55 | 93 | 1016.6 |
| 20260502214530 | 54 | 0 | 0.0 | 0.0 | 0.00 | 0.55 | 0.55 | 93 | 1016.6 |
| 20260502214019 | 54 | 0 | 0.0 | 0.0 | 0.00 | 0.55 | 0.55 | 92 | 1016.4 |
| 20260502213514 | 54 | 0 | 0.0 | 0.0 | 0.00 | 0.55 | 0.55 | 92 | 1016.4 |
| 20260502213032 | 54 | 0 | 0.0 | 0.9 | 0.00 | 0.55 | 0.55 | 92 | 1016.6 |
| 20260502212514 | 54 | 0 | 0.0 | 0.9 | 0.00 | 0.55 | 0.55 | 92 | 1016.5 |
| 20260502212014 | 54 | 0 | 0.0 | 1.7 | 0.00 | 0.55 | 0.55 | 92 | 1016.4 |
| 20260502211534 | 54 | 0 | 0.0 | 1.7 | 0.00 | 0.55 | 0.55 | 92 | 1016.3 |
| 20260502211015 | 54 | 190 | 0.0 | 1.7 | 0.00 | 0.55 | 0.55 | 92 | 1016.3 |
| 20260502210513 | 54 | 0 | 0.0 | 0.0 | 0.00 | 0.55 | 0.55 | 92 | 1016.3 |
| 20260502210037 | 54 | 0 | 0.0 | 0.9 | 0.00 | 0.55 | 0.55 | 92 | 1016.4 |
| 20260502205515 | 54 | 0 | 0.0 | 0.9 | 0.00 | 0.55 | 0.55 | 92 | 1016.2 |
| 20260502205014 | 54 | 0 | 0.0 | 0.9 | 0.00 | 0.55 | 0.55 | 92 | 1016.1 |
| 20260502204531 | 54 | 0 | 0.0 | 0.0 | 0.00 | 0.55 | 0.55 | 92 | 1016.1 |
| 20260502204013 | 54 | 0 | 0.0 | 0.0 | 0.00 | 0.55 | 0.55 | 92 | 1016.1 |
| 20260502203518 | 54 | 0 | 0.0 | 0.0 | 0.00 | 0.55 | 0.55 | 92 | 1015.9 |